Theta_e
309 309 306 311 313 313 314 314 313 314 312 315 317 315 315 311 309 307 308 310 318 325 327 330 329 327 328 329 330 329 327 326 327 326 328 329 325 323 323 324 325 325 323 324
305 307 309 311 313 313 313 311 313 313 312 314 317 316 312 310 311 308 306 309 312 319 327 329 331 331 328 328 327 327 327 327 328 328 327 326 325 325 324 323 325 326 325 323
308 308 309 310 312 312 312 313 310 316 317 315 316 315 317 312 311 311 308 307 309 312 318 323 328 329 330 327 325 325 327 328 328 329 329 328 328 328 327 323 321 322 323 325
305 307 308 310 313 312 313 313 312 315 320 320 311 318 311 313 311 310 311 308 307 310 313 315 319 325 328 329 329 327 326 326 326 326 327 328 329 328 327 327 327 327 327 328
307 307 307 309 312 310 314 311 314 315 316 317 314 316 313 310 311 310 310 309 307 308 309 310 314 314 322 324 326 326 328 326 326 325 325 326 326 326 327 326 327 328 328 328
304 305 306 307 307 309 309 311 312 312 314 316 316 317 315 312 310 308 309 308 308 307 308 308 309 313 316 317 315 318 317 323 325 327 325 322 321 322 321 324 326 325 322 322
305 305 304 306 307 307 307 308 305 309 314 317 310 313 312 311 310 308 307 309 310 310 308 307 309 309 309 310 311 310 309 315 317 321 320 322 320 321 322 323 324 325 326 325
307 305 305 305 308 308 308 309 309 309 313 315 307 312 311 308 308 308 308 311 311 313 313 311 308 309 309 310 310 310 310 309 309 311 314 316 319 317 319 319 322 323 325 325
307 307 305 305 306 306 308 309 308 308 303 308 307 307 307 308 306 304 305 306 310 311 312 312 313 312 307 308 308 310 311 310 310 309 310 311 311 312 313 313 313 312 312 311
308 307 305 305 305 306 307 306 307 305 303 309 310 307 308 306 304 303 303 303 304 305 306 307 308 309 310 309 307 307 306 307 309 310 311 311 311 311 311 311 311 311 312 312
307 306 305 305 307 308 306 307 306 306 307 308 310 309 304 305 303 303 302 300 301 302 303 304 305 306 306 306 306 306 305 306 306 306 306 307 307 308 310 311 312 312 312 312
306 305 302 307 304 303 306 308 305 304 307 305 307 307 305 304 302 302 300 299 300 300 300 300 300 301 302 304 306 306 305 304 304 304 304 305 305 305 305 306 306 307 308 309
307 298 297 300 301 302 305 306 306 304 304 306 305 306 303 302 301 302 300 299 299 300 300 300 300 300 300 300 301 302 304 306 305 304 304 304 303 303 303 303 304 304 304 304
305 302 301 300 302 302 305 306 306 305 302 306 305 305 305 301 300 301 300 299 300 300 300 300 300 299 299 299 299 300 300 301 303 305 305 304 304 304 303 303 303 303 303 303
301 298 299 301 299 299 302 304 305 308 306 303 305 304 303 300 298 301 300 299 300 300 300 299 299 299 299 299 299 299 299 300 300 301 303 305 304 304 304 303 303 303 303 303
297 295 296 296 297 295 296 298 302 303 306 306 306 307 301 302 300 301 299 299 299 299 299 298 298 299 299 299 299 299 299 299 299 300 301 302 303 305 305 304 304 303 303 303
297 294 291 294 292 290 292 294 298 302 302 303 306 304 300 297 299 300 299 299 299 299 298 298 298 298 298 299 299 299 299 299 299 299 300 300 301 302 304 305 304 303 303 302
294 289 280 288 285 291 296 294 295 298 298 301 301 300 299 297 300 300 299 299 299 298 298 298 298 298 298 298 299 299 299 299 299 299 300 300 301 301 301 303 304 304 303 302
295 293 282 289 280 290 295 294 294 296 297 295 299 298 298 299 299 298 299 298 298 298 298 298 298 298 298 298 298 298 298 299 299 299 300 300 301 301 301 302 302 302 302 302
294 292 290 280 287 289 294 297 297 296 294 295 297 295 297 298 296 294 298 298 298 298 298 298 298 298 298 298 298 298 298 299 299 299 299 300 301 301 302 302 302 302 301 301
293 284 285 285 283 288 292 296 295 293 296 297 297 297 298 295 297 298 298 299 298 298 298 298 298 298 298 298 298 297 298 299 299 299 299 299 300 301 302 302 302 301 301 300
295 290 285 281 285 292 293 295 296 295 298 299 299 299 298 298 298 299 298 298 298 298 298 298 298 298 298 298 298 297 298 299 299 299 299 300 299 300 300 300 300 300 300 300
295 293 293 292 293 294 295 297 298 298 298 298 299 299 299 299 298 298 298 298 298 298 297 297 297 297 297 297 297 297 298 298 299 299 299 299 299 298 299 299 299 298 298 298
292 293 293 294 295 294 296 297 297 298 299 299 299 298 298 298 298 298 298 299 299 298 298 298 298 298 298 297 297 298 298 298 300 299 299 299 299 299 298 298 298 298 298 299
293 293 292 292 294 295 296 297 298 299 299 299 298 298 298 298 298 299 299 298 298 298 298 298 298 298 298 298 297 297 298 298 299 300 299 299 299 299 298 298 298 298 298 298
293 293 294 295 297 297 298 299 299 298 298 298 298 298 298 298 298 298 298 297 297 297 297 297 297 297 297 297 297 298 297 297 298 298 299 300 299 298 298 298 298 297 297 297
Wind_Speed
1 1 2 6 8 11 12 11 16 7 6 4 8 6 7 20 12 25 28 24 21 14 6 7 14 17 19 19 19 18 17 14 14 18 22 21 21 19 19 19 17 16 15 15
4 2 4 8 8 11 6 11 10 11 6 8 9 11 13 9 9 24 31 25 24 13 12 8 8 9 14 15 16 18 18 17 16 16 17 19 17 17 17 18 20 18 18 17
0 4 7 4 8 14 5 6 7 4 9 5 11 4 5 4 14 27 35 26 27 19 17 12 7 12 14 16 16 16 17 19 17 18 18 18 19 19 18 16 15 16 15 14
4 4 4 4 7 5 5 11 7 9 2 3 4 4 1 4 12 19 24 32 27 31 18 15 15 12 10 8 11 18 17 18 19 18 18 19 19 19 18 15 14 13 15 16
4 5 4 2 6 4 6 6 3 5 4 3 6 4 4 6 10 12 15 21 17 21 23 29 21 15 19 15 10 9 8 10 11 13 14 16 16 15 16 17 16 16 18 22
5 5 2 3 6 5 10 3 2 2 3 3 6 1 3 4 5 4 10 23 33 27 23 26 27 17 21 18 16 13 15 8 8 9 4 1 2 3 6 7 9 10 11 11
6 5 6 2 5 5 8 5 3 5 5 3 10 7 4 9 6 5 8 11 17 23 27 24 20 17 17 18 22 17 12 7 7 3 2 5 5 7 10 14 15 18 22 22
4 5 6 7 1 3 5 3 3 1 2 2 7 6 5 4 7 7 3 4 7 10 12 15 13 13 16 16 21 22 16 15 11 9 10 8 8 14 14 15 17 20 15 13
3 4 5 3 3 2 7 4 2 5 2 3 3 1 1 2 3 6 10 9 3 3 3 7 6 9 14 9 8 8 9 7 7 6 4 8 10 12 13 14 12 11 11 10
1 5 2 5 3 2 2 2 3 3 3 3 2 3 2 4 5 6 11 13 16 17 18 17 16 14 10 9 9 8 7 6 6 5 3 1 1 4 6 8 8 7 6 6
2 1 5 2 5 2 5 3 4 3 2 2 3 0 2 2 3 6 9 16 17 20 21 21 22 20 17 13 11 11 10 9 8 6 4 4 3 2 2 2 3 3 5 6
1 1 3 2 3 2 1 1 1 3 2 2 2 3 2 4 6 12 13 16 20 21 23 24 24 23 22 20 19 17 14 12 10 8 7 6 6 3 1 1 2 2 2 2
2 2 3 6 5 3 4 3 1 1 2 1 4 3 2 5 9 10 14 15 17 19 21 22 23 23 22 22 21 20 17 14 11 9 7 6 4 4 4 3 1 1 2 2
1 1 4 4 2 2 3 4 3 2 2 3 3 4 3 4 6 8 10 12 14 16 18 18 19 19 19 19 18 17 16 15 12 9 6 5 4 4 3 3 3 3 3 3
2 2 0 0 2 3 3 3 3 1 1 2 2 7 5 6 7 9 9 10 12 15 16 17 17 17 17 17 18 17 16 15 13 11 8 4 4 4 4 4 4 3 3 3
1 2 1 3 2 3 4 7 4 3 2 4 2 1 4 6 9 11 10 11 12 12 13 13 14 15 16 16 16 17 17 17 16 14 12 11 9 8 7 7 7 7 7 7
2 4 3 4 4 3 5 7 6 3 1 5 5 4 6 4 9 11 11 9 9 9 11 12 13 14 14 14 15 15 16 16 16 15 14 12 10 9 9 9 9 10 10 9
4 4 3 3 4 2 5 1 1 3 1 3 3 5 4 6 6 11 9 6 5 8 11 13 13 13 13 13 13 14 15 16 17 17 16 14 11 11 10 10 10 10 10 11
1 4 3 3 3 6 4 3 5 5 4 6 5 3 5 11 12 8 6 3 5 9 12 13 14 14 12 12 14 15 15 16 16 16 17 16 15 13 11 10 10 10 11 11
5 5 3 3 4 5 4 2 4 2 1 6 10 10 11 10 3 4 6 3 8 11 12 11 12 12 12 12 15 17 17 15 16 15 15 15 14 13 12 11 10 10 10 10
3 3 5 2 2 8 6 5 4 5 5 8 12 16 19 5 5 8 3 8 11 12 11 10 11 13 14 16 18 18 17 14 15 14 13 14 13 11 11 10 9 8 8 8
6 6 3 3 2 7 9 4 6 4 12 15 15 15 12 5 6 5 8 9 10 12 13 14 15 17 18 19 20 18 16 14 13 13 12 14 13 10 8 8 7 6 6 7
3 6 5 8 5 3 14 2 6 16 18 13 12 9 7 7 8 7 8 9 11 13 14 13 15 18 18 18 20 19 18 16 14 12 11 13 12 10 7 6 5 4 4 5
4 6 3 3 4 12 10 10 13 14 13 12 6 7 8 8 7 9 11 13 16 15 15 15 17 18 19 17 16 17 17 17 16 14 13 13 11 11 9 7 5 5 4 5
4 12 6 4 6 4 13 18 18 15 12 10 10 10 9 9 11 14 16 16 16 18 18 20 22 24 25 23 22 20 19 19 19 20 18 17 16 14 13 12 11 11 11 11
10 7 6 6 15 10 13 21 21 19 16 13 11 11 12 14 14 14 16 16 19 21 21 22 23 25 26 27 28 26 24 25 24 23 24 23 21 21 19 19 19 19 18 19
Wind_Direction
306 359 309 321 317 296 268 279 269 226 245 249 219 169 63 19 303 43 44 17 43 59 47 184 206 212 216 219 223 223 220 220 221 220 221 228 232 233 235 237 240 244 250 255
13 322 313 307 309 333 281 282 308 258 210 204 152 132 87 35 344 50 53 27 30 32 60 87 169 201 210 220 225 224 224 226 226 228 232 237 242 249 253 255 252 253 256 258
235 280 323 343 343 349 317 308 334 299 89 73 121 52 122 193 31 49 49 40 32 29 36 62 136 182 195 205 213 224 224 230 235 236 236 239 244 252 258 258 255 254 259 252
247 302 337 348 351 343 330 344 343 12 99 70 354 134 248 74 53 37 33 38 26 28 28 55 72 101 149 176 205 207 214 226 235 233 236 242 249 257 264 261 258 250 246 248
291 317 337 349 284 319 262 333 344 45 51 108 14 89 334 16 34 31 21 57 41 43 30 36 30 46 82 84 108 119 166 197 207 221 239 248 250 256 269 270 261 256 255 252
271 285 247 262 286 248 285 288 251 7 71 73 341 282 33 31 29 12 42 33 48 39 40 38 27 18 39 50 42 55 49 66 99 133 131 121 204 244 285 287 285 263 274 276
327 314 311 328 338 321 14 21 349 4 47 19 339 53 31 18 39 30 49 54 45 48 51 49 33 38 47 53 43 37 36 12 15 265 277 257 242 262 270 278 282 280 270 271
351 333 353 335 69 292 321 40 104 108 46 15 2 25 14 317 331 349 75 59 27 6 8 30 63 42 50 63 76 44 28 25 2 328 325 302 294 294 283 293 275 270 279 276
357 273 308 256 311 52 319 38 284 112 350 70 7 144 46 234 3 57 63 57 54 303 309 358 356 36 59 57 54 91 81 56 44 326 283 261 263 269 259 255 258 265 269 268
322 298 275 296 344 7 44 298 12 10 68 69 51 60 73 22 35 47 55 59 71 77 72 63 58 59 59 51 55 57 72 93 102 104 103 99 256 236 245 247 236 233 236 239
331 135 293 360 15 350 346 8 32 113 64 135 117 331 220 146 113 97 74 80 80 77 75 71 69 67 64 67 67 67 58 57 63 58 42 40 52 19 303 269 257 234 215 208
48 1 260 252 278 238 242 354 33 103 280 46 89 221 128 164 125 108 97 93 87 80 77 73 68 64 61 56 53 49 46 42 45 48 50 45 37 16 6 1 329 308 272 246
22 333 354 347 353 7 44 336 328 73 53 221 124 230 113 129 98 96 97 84 79 76 70 65 59 53 51 49 49 48 43 36 30 27 27 33 39 29 13 4 347 257 240 239
86 133 178 192 222 313 324 338 359 45 86 181 199 150 147 131 110 109 98 89 80 70 63 58 53 46 41 38 36 36 35 35 31 21 2 350 345 343 349 353 340 315 295 273
109 163 191 165 13 320 286 283 329 64 51 118 206 157 196 167 153 143 121 103 80 63 51 41 35 30 26 24 23 23 21 18 17 15 6 329 292 288 293 288 279 267 257 253
31 162 90 336 349 359 292 283 267 244 162 115 67 134 173 139 139 143 129 104 76 57 43 32 26 22 20 17 16 15 13 12 10 4 359 355 340 313 294 286 282 281 275 261
82 129 77 271 340 343 330 230 194 192 215 142 171 201 171 140 151 151 130 96 69 46 32 22 17 13 10 7 7 7 6 4 2 360 354 345 337 326 307 295 289 285 278 272
130 93 65 232 9 4 253 297 109 163 226 210 117 145 131 143 148 145 125 99 58 19 3 358 357 359 360 0 1 2 358 356 353 352 348 342 334 324 315 304 288 280 278 274
95 123 69 123 187 289 300 194 181 175 209 193 189 142 141 135 134 151 146 103 17 356 348 342 339 340 341 345 351 350 348 349 349 349 347 343 337 330 319 306 295 285 277 271
82 61 113 79 135 217 250 213 208 162 320 176 174 170 158 149 122 247 176 352 342 337 334 334 339 342 335 332 336 340 342 341 344 344 346 345 339 331 326 317 303 290 280 270
91 26 148 164 219 288 234 203 153 100 220 160 165 162 160 173 168 146 213 306 316 325 327 324 325 329 329 321 320 324 328 328 335 339 343 343 339 337 332 325 316 299 283 269
161 145 175 97 88 270 174 138 184 181 140 140 144 152 165 175 187 237 294 310 320 321 318 315 313 315 317 316 316 317 320 313 324 332 337 343 341 346 355 352 339 324 308 291
208 183 177 187 209 258 194 234 196 156 149 154 155 169 196 222 247 266 289 302 311 320 324 322 320 323 325 319 312 311 313 302 305 314 314 329 327 330 340 356 8 11 335 305
238 165 183 110 232 224 210 205 178 169 173 168 185 212 223 233 246 279 295 304 307 309 311 308 310 312 315 318 311 307 307 295 288 296 298 300 303 300 300 306 309 309 303 291
174 146 173 264 271 269 223 214 198 202 198 215 230 223 225 252 271 286 293 297 300 303 307 305 305 308 313 312 309 307 303 299 290 284 283 282 277 274 276 277 277 275 272 271
189 174 170 214 200 193 205 204 205 221 218 226 222 222 242 261 273 282 293 305 307 307 307 307 308 306 307 306 306 306 303 292 286 280 277 275 271 263 262 266 269 271 270 272